Current weather by "City, St" or "zip code"  
 

Current Conditions: Donalsonville Municipal Airport, GA

Overcast with Haze


81.0 F

Last Updated on Oct 21 2021, 1:50 pm EDT
Humidity: 56%
Wind Speed: S 9.2 mph
Barometer 30.15 in
Dewpoint: 63.9 F
Visibility: 4.00 mi
Precip: --
Heat Index: 83 F
Wind Chill: NA
Current conditions at:

Donalsonville Municipal Airport, GA (K17J)

Lat: 31.00697 Lon: 84.87761

Local Radar Image active severe weather and emergency alerts image image weather storm and storm spotter reports image weather observation monitoring service image
Local
Radar
Active
Alerts
Storm Reports Obs
Monitoring

Sign-up For Email & Text Message Weather Alert Notification Services



Advertise Here

Observation History for Donalsonville Municipal Airport, GA


Time Wind
(mph)
Vis
(mi)
Weather Precip (in) Temperature (F) Relative
Humidity
Wind
Chill
(F)
Heat
Index
(F)
Pressure
Air Dwpt altimeter
(in)
sea level
(mb)
Rmks
1:50 pm EDT S 9.2 4.00 Overcast with Haze -- 81.0 63.9 56% NA 83 30.15 M
1:30 pm EDT W 8.1 10.00 Overcast -- 81.0 63.1 55% NA 82 30.16 M
12:50 pm EDT S 6.9 10.00 Overcast -- 81.0 61.5 52% NA 82 30.17 M
11:50 am EDT SW 9.2 10.00 Fair -- 80.0 64.4 59% NA 82 30.19 M
10:50 am EDT S 10.4 10.00 Fair -- 76.0 63.7 65% NA NA 30.19 M
9:50 am EDT S 6.9 10.00 Fair -- 69.0 61.0 76% NA NA 30.20 M
9:30 am EDT S 3.5 7.00 Partly Cloudy with Haze -- 68.0 61.2 79% NA NA 30.19 M
8:50 am EDT N 0.0 10.00 Overcast -- 65.0 60.4 86% NA NA 30.18 M
7:50 am EDT N 0.0 10.00 Partly Cloudy -- 61.0 58.3 91% NA NA 30.17 M
6:50 am EDT N 0.0 10.00 Fair -- 62.0 58.6 89% NA NA 30.17 M
5:50 am EDT N 0.0 10.00 Fair -- 63.0 59.9 90% NA NA 30.16 M
4:50 am EDT N 0.0 10.00 Fair -- 63.0 59.2 86% NA NA 30.16 M
3:50 am EDT N 0.0 10.00 Fair -- 63.0 59.5 88% NA NA 30.16 M
2:50 am EDT N 3.5 10.00 Fair -- 63.0 59.9 89% NA NA 30.17 M
1:50 am EDT N 0.0 10.00 Fair -- 63.0 59.4 89% NA NA 30.17 M
12:50 am EDT N 0.0 10.00 Fair -- 63.0 61.2 93% NA NA 30.19 M
12:30 am EDT N 0.0 10.00 Fair -- 63.0 60.8 92% NA NA 30.20 M
11:50 pm EDT N 0.0 10.00 Fair -- 63.0 59.7 88% NA NA 30.21 M
10:50 pm EDT N 0.0 10.00 Fair -- 65.0 59.9 85% NA NA 30.21 M
9:50 pm EDT N 0.0 10.00 Fair -- 65.0 58.1 78% NA NA 30.19 M
8:50 pm EDT N 0.0 10.00 Fair -- 66.0 58.6 77% NA NA 30.18 M
8:30 pm EDT N 0.0 10.00 Fair -- 67.0 58.6 74% NA NA 30.18 M
7:50 pm EDT N 0.0 10.00 Fair -- 69.0 58.1 68% NA NA 30.18 M
6:50 pm EDT N 0.0 10.00 Fair -- 72.0 59.2 63% NA NA 30.18 M

Regional Weather Observation


Blakely, Early County Airport, GA (KBIJ)

Overcast
79.0 F

Dothan, Dothan Regional Airport, AL (KDHN)

Mostly Cloudy
81.0 F

Hanchey AHP / Ozark, AL (KHEY)

Mostly Cloudy
80.0 F

Cairns Army Air Field / Ozark, AL (KOZR)

Mostly Cloudy
80.0 F

Fort Rucker, Lowe Army Heliport, AL (KLOR)

Overcast
78.0 F

Marianna Municipal Airport, FL (KMAI)

Overcast
81.0 F

Advertise Here


Advertise Here